Flag for Turkey Weather past 2 weeks in Konya, Turkey

Now
36 °F

Scattered clouds.


Feels Like: 25 °F
Forecast: 22 / 41 °F
Wind: 17 mph from North

Location: Konya Airport

Current Time: Dec 22, 2014 at 4:31:58 PM

Latest Report: Dec 22, 2014 at 3:50 PM


Visibility: N/A

Pressure: 30.18 "Hg

Humidity: 65%

Dew point: 25 °F

Location of KonyaLocation

Historic Weather in Konya — Graph

°F

Konya temperature yesterday

Maximum temperature yesterday: 34 °F (at 2:50 PM)
Minimum temperature yesterday: 27 °F (at 6:50 AM)
Average temperature yesterday: 31 °F

Past Weeks' High & Low Weather Summary

 TemperatureHumidityPressure
High55 °F (Dec 10, 1:50 PM)100% (Dec 11, 5:50 AM)30.33 "Hg (Dec 11, 5:50 AM)
Low27 °F (Dec 16, 7:50 AM)58% (Dec 20, 1:50 PM)29.77 "Hg (Dec 9, 1:50 PM)
Average41 °F87%30.12 "Hg
* Reported Dec 7 2:50 PM — Dec 22 2:50 PM, Konya, Weather by CustomWeather, © 2014

Note: Actual official high and low records may vary slightly from our data, if they occured in-between our weather recording intervals... More about our weather records

Advertising

Konya weather history for previous 24 hours

 ConditionsComfort  
Time TempWeatherWind HumidityBarometerVisibility
2:50 PM
Dec 22
37 °FPartly sunny.17 mph65%30.18 "HgN/A
1:50 PM37 °FPartly sunny.22 mph65%30.15 "HgN/A
12:50 PM36 °FPassing clouds.23 mph70%30.15 "HgN/A
11:50 AM37 °FPassing clouds.17 mph60%30.15 "HgN/A
10:50 AM36 °FScattered clouds.18 mph65%30.18 "HgN/A
9:50 AM36 °FScattered clouds.13 mph70%30.18 "HgN/A
8:50 AM34 °FBroken clouds.13 mph75%30.18 "HgN/A
7:50 AM34 °FBroken clouds.17 mph75%30.15 "HgN/A
6:50 AM34 °FPartly cloudy.18 mph81%30.12 "HgN/A
5:50 AM34 °FLight snow. Partly cloudy.22 mph87%30.12 "HgN/A
4:50 AM34 °FLight snow. Partly cloudy.17 mph87%30.09 "HgN/A
3:50 AM36 °FLight snow. Partly cloudy.18 mph81%30.07 "HgN/A
2:50 AM37 °FLight rain. Partly cloudy.22 mph81%30.07 "HgN/A
1:50 AM37 °FPartly cloudy.21 mph100%30.07 "HgN/A
12:50 AM32 °FIce fog.7 mph100%30.07 "Hg2 mi
11:50 PM
Dec 21
32 °FIce fog.3 mph100%30.07 "Hg0 mi
10:50 PM32 °FIce fog.2 mph100%30.07 "Hg0 mi
9:50 PM32 °FIce fog.2 mph100%30.07 "Hg0 mi
8:50 PM32 °FIce fog.5 mph100%30.07 "Hg0 mi
7:50 PM32 °FIce fog.6 mph100%30.04 "Hg0 mi
6:50 PM34 °FIce fog.2 mph100%30.07 "Hg0 mi
5:50 PM34 °FPartly cloudy.2 mph100%30.07 "Hg1 mi
4:50 PM34 °FFog.2 mph100%30.07 "Hg1 mi
Weather by CustomWeather, © 2014

See weather overviewHow to use our weather pages